Back to catalog

KUIPER-00279

AliveCommunicationsLEO
NORAD 67795·PAYLOAD·🇺🇸 United States

Launched Feb 12, 2026 from Guiana Space Centre

Loading…

Next Passes (next 24 hours)

TLE

FreshSource: CelesTrak SupGP

Epoch: Sep 14, 2026, 23:15 UTC

1 67795C 26030AH  26257.96923611  .00006875  00000+0  90014-3 0  2573
2 67795  51.9020  61.1573 0000772 111.7301 213.6815 14.79915122    14

Track KUIPER-00279 in real time with AllMySat

Download on the App Store